| time (UTC) | temp F | wind direction | speed knots | gust knots | rain 1hr in | rain 24hr in | rain mn in | humidity % | barometer mb |
| 20260506102929 | 51 | 114 | 1.7 | 7.0 | 0.00 | 0.00 | 0.00 | 77 | 1013.6 |
| 20260506102427 | 51 | 147 | 0.0 | 4.3 | 0.00 | 0.00 | 0.00 | 78 | 1013.1 |
| 20260506101924 | 51 | 138 | 2.6 | 3.5 | 0.00 | 0.00 | 0.00 | 79 | 1013.2 |
| 20260506101420 | 51 | 146 | 0.0 | 6.1 | 0.00 | 0.00 | 0.00 | 79 | 1013.2 |
| 20260506100918 | 51 | 113 | 2.6 | 5.2 | 0.00 | 0.00 | 0.00 | 79 | 1013.2 |
| 20260506100416 | 51 | 116 | 2.6 | 4.3 | 0.00 | 0.00 | 0.00 | 79 | 1013.2 |
| 20260506095914 | 51 | 140 | 6.1 | 7.8 | 0.00 | 0.00 | 0.00 | 79 | 1013.1 |
| 20260506095412 | 51 | 132 | 0.0 | 7.0 | 0.00 | 0.00 | 0.00 | 80 | 1012.9 |
| 20260506094908 | 50 | 191 | 0.0 | 6.1 | 0.00 | 0.00 | 0.00 | 81 | 1012.9 |
| 20260506094407 | 51 | 55 | 0.0 | 3.5 | 0.00 | 0.00 | 0.00 | 81 | 1013.1 |
| 20260506093904 | 51 | 91 | 2.6 | 4.3 | 0.00 | 0.00 | 0.00 | 81 | 1013.0 |
| 20260506093401 | 51 | 129 | 1.7 | 7.8 | 0.00 | 0.00 | 0.00 | 80 | 1012.9 |
| 20260506092859 | 51 | 107 | 1.7 | 4.3 | 0.00 | 0.00 | 0.00 | 80 | 1012.8 |
| 20260506092357 | 51 | 93 | 3.5 | 7.0 | 0.00 | 0.00 | 0.00 | 81 | 1013.4 |
| 20260506091853 | 51 | 188 | 0.0 | 4.3 | 0.00 | 0.00 | 0.00 | 81 | 1013.2 |
| 20260506091351 | 51 | 131 | 2.6 | 5.2 | 0.00 | 0.00 | 0.00 | 81 | 1013.0 |
| 20260506090848 | 51 | 116 | 2.6 | 3.5 | 0.00 | 0.00 | 0.00 | 81 | 1013.2 |
| 20260506090346 | 51 | 131 | 0.0 | 3.5 | 0.00 | 0.00 | 0.00 | 81 | 1012.9 |
| 20260506085842 | 51 | 138 | 0.0 | 4.3 | 0.00 | 0.00 | 0.00 | 81 | 1012.9 |
| 20260506085339 | 51 | 140 | 0.0 | 4.3 | 0.00 | 0.00 | 0.00 | 81 | 1013.1 |
| 20260506084835 | 51 | 126 | 1.7 | 3.5 | 0.00 | 0.00 | 0.00 | 80 | 1013.0 |
| 20260506084332 | 51 | 133 | 1.7 | 3.5 | 0.00 | 0.00 | 0.00 | 80 | 1012.8 |
| 20260506083829 | 51 | 167 | 0.0 | 5.2 | 0.00 | 0.00 | 0.00 | 80 | 1012.8 |
| 20260506083326 | 51 | 116 | 1.7 | 4.3 | 0.00 | 0.00 | 0.00 | 80 | 1012.8 |
| 20260506082824 | 51 | 122 | 2.6 | 4.3 | 0.00 | 0.00 | 0.00 | 79 | 1012.7 |
| 20260506082320 | 51 | 199 | 0.0 | 4.3 | 0.00 | 0.00 | 0.00 | 79 | 1012.5 |
| 20260506081816 | 51 | 114 | 2.6 | 5.2 | 0.00 | 0.00 | 0.00 | 78 | 1012.4 |
| 20260506081314 | 51 | 122 | 0.0 | 4.3 | 0.00 | 0.00 | 0.00 | 78 | 1012.2 |
| 20260506080812 | 51 | 122 | 1.7 | 4.3 | 0.00 | 0.00 | 0.00 | 78 | 1012.2 |
| 20260506080308 | 52 | 103 | 2.6 | 3.5 | 0.00 | 0.00 | 0.00 | 79 | 1012.3 |
| 20260506073252 | 52 | 150 | 0.0 | 4.3 | 0.00 | 0.00 | 0.00 | 78 | 1012.0 |
| 20260506072749 | 52 | 129 | 2.6 | 4.3 | 0.00 | 0.00 | 0.00 | 79 | 1012.0 |
| 20260506072246 | 52 | 118 | 0.0 | 4.3 | 0.00 | 0.00 | 0.00 | 79 | 1012.1 |
| 20260506071744 | 52 | 116 | 0.0 | 4.3 | 0.00 | 0.00 | 0.00 | 79 | 1012.2 |
| 20260506071242 | 52 | 116 | 2.6 | 3.5 | 0.00 | 0.00 | 0.00 | 79 | 1012.2 |
| 20260506070738 | 52 | 193 | 1.7 | 3.5 | 0.00 | 0.00 | 0.00 | 79 | 1012.1 |
| 20260506070235 | 52 | 116 | 5.2 | 6.1 | 0.00 | 0.00 | 0.00 | 78 | 1012.3 |
| 20260506062212 | 52 | 133 | 2.6 | 3.5 | 0.00 | 0.00 | 0.00 | 78 | 1011.6 |
| 20260506061708 | 52 | 135 | 2.6 | 3.5 | 0.00 | 0.00 | 0.00 | 78 | 1011.7 |
| 20260506061206 | 52 | 149 | 0.0 | 3.5 | 0.00 | 0.00 | 0.00 | 78 | 1011.8 |
| 20260506060705 | 52 | 156 | 0.0 | 2.6 | 0.00 | 0.00 | 0.00 | 77 | 1011.6 |
| 20260506060201 | 52 | 175 | 2.6 | 4.3 | 0.00 | 0.00 | 0.00 | 77 | 1011.9 |
| 20260506051133 | 53 | 96 | 2.6 | 6.1 | 0.00 | 0.00 | 0.00 | 76 | 1011.3 |
| 20260506050631 | 53 | 153 | 0.0 | 4.3 | 0.00 | 0.00 | 0.00 | 76 | 1011.1 |
| 20260506050128 | 53 | 146 | 1.7 | 2.6 | 0.00 | 0.00 | 0.00 | 76 | 1011.4 |
| 20260506045121 | 53 | 61 | 2.6 | 4.3 | 0.00 | 0.00 | 0.00 | 75 | 1011.4 |
| 20260506044619 | 53 | 84 | 0.0 | 4.3 | 0.00 | 0.00 | 0.00 | 75 | 1011.0 |
| 20260506044116 | 53 | 137 | 1.7 | 3.5 | 0.00 | 0.00 | 0.00 | 75 | 1011.2 |
| 20260506043613 | 53 | 84 | 0.0 | 3.5 | 0.00 | 0.00 | 0.00 | 74 | 1011.3 |
| 20260506043111 | 54 | 89 | 0.0 | 5.2 | 0.00 | 0.00 | 0.00 | 74 | 1011.5 |
| 20260506042610 | 54 | 121 | 0.0 | 4.3 | 0.00 | 0.00 | 0.00 | 74 | 1011.4 |
| 20260506042108 | 54 | 102 | 0.0 | 4.3 | 0.00 | 0.00 | 0.00 | 74 | 1011.3 |
| 20260506041606 | 54 | 116 | 1.7 | 4.3 | 0.00 | 0.00 | 0.00 | 74 | 1011.3 |
| 20260506041102 | 54 | 194 | 0.0 | 6.1 | 0.00 | 0.00 | 0.00 | 74 | 1011.0 |
| 20260506040600 | 54 | 304 | 0.0 | 4.3 | 0.00 | 0.00 | 0.00 | 74 | 1011.2 |
| 20260506040056 | 54 | 120 | 0.0 | 3.5 | 0.00 | 0.00 | 0.00 | 74 | 1011.3 |
| 20260506035553 | 54 | 77 | 3.5 | 4.3 | 0.00 | 0.00 | 0.00 | 73 | 1011.2 |
| 20260506035050 | 54 | 160 | 3.5 | 7.0 | 0.00 | 0.00 | 0.00 | 73 | 1011.1 |
| 20260506034547 | 54 | 97 | 7.8 | 7.8 | 0.00 | 0.00 | 0.00 | 73 | 1011.1 |
| 20260506034044 | 54 | 126 | 3.5 | 4.3 | 0.00 | 0.00 | 0.00 | 73 | 1010.9 |
| 20260506033542 | 54 | 184 | 0.0 | 6.1 | 0.00 | 0.00 | 0.00 | 73 | 1011.1 |
| 20260506033038 | 55 | 204 | 0.0 | 3.5 | 0.00 | 0.00 | 0.00 | 73 | 1010.7 |
| 20260506032536 | 55 | 137 | 2.6 | 4.3 | 0.00 | 0.00 | 0.00 | 73 | 1010.9 |
| 20260506032032 | 55 | 104 | 3.5 | 4.3 | 0.00 | 0.00 | 0.00 | 72 | 1010.5 |
| 20260506031530 | 55 | 96 | 5.2 | 6.1 | 0.00 | 0.00 | 0.00 | 72 | 1010.8 |
| 20260506031027 | 55 | 63 | 2.6 | 4.3 | 0.00 | 0.00 | 0.00 | 72 | 1010.6 |
| 20260506030525 | 55 | 124 | 3.5 | 3.5 | 0.00 | 0.00 | 0.00 | 72 | 1010.5 |
| 20260506030022 | 55 | 93 | 2.6 | 4.3 | 0.00 | 0.00 | 0.00 | 71 | 1010.6 |
| 20260506025519 | 56 | 124 | 0.0 | 6.1 | 0.00 | 0.00 | 0.00 | 71 | 1010.5 |
| 20260506025015 | 56 | 89 | 0.0 | 4.3 | 0.00 | 0.00 | 0.00 | 71 | 1011.0 |
| 20260506024512 | 56 | 135 | 2.6 | 4.3 | 0.00 | 0.00 | 0.00 | 71 | 1010.8 |
| 20260506024008 | 56 | 153 | 1.7 | 3.5 | 0.00 | 0.00 | 0.00 | 71 | 1010.5 |
| 20260506023504 | 56 | 114 | 3.5 | 5.2 | 0.00 | 0.00 | 0.00 | 71 | 1010.6 |
| 20260506023002 | 56 | 142 | 1.7 | 4.3 | 0.00 | 0.00 | 0.00 | 71 | 1010.4 |
| 20260506022459 | 56 | 122 | 2.6 | 5.2 | 0.00 | 0.00 | 0.00 | 71 | 1010.2 |
| 20260506021957 | 56 | 167 | 0.0 | 4.3 | 0.00 | 0.00 | 0.00 | 71 | 1010.1 |
| 20260506021454 | 56 | 158 | 0.0 | 6.1 | 0.00 | 0.00 | 0.00 | 72 | 1009.9 |
| 20260506020951 | 56 | 118 | 1.7 | 2.6 | 0.00 | 0.00 | 0.00 | 72 | 1009.7 |
| 20260506020449 | 56 | 162 | 1.7 | 3.5 | 0.00 | 0.00 | 0.00 | 72 | 1009.7 |
| 20260506015946 | 56 | 145 | 0.0 | 4.3 | 0.00 | 0.00 | 0.00 | 72 | 1009.8 |
| 20260506015443 | 56 | 119 | 4.3 | 5.2 | 0.00 | 0.00 | 0.00 | 73 | 1009.7 |
| 20260506014940 | 56 | 153 | 2.6 | 4.3 | 0.00 | 0.00 | 0.00 | 73 | 1009.2 |
| 20260506014437 | 56 | 60 | 0.0 | 4.3 | 0.00 | 0.00 | 0.00 | 73 | 1009.2 |
| 20260506013933 | 56 | 149 | 0.0 | 6.1 | 0.00 | 0.00 | 0.00 | 74 | 1009.2 |
| 20260506013432 | 56 | 159 | 0.0 | 5.2 | 0.00 | 0.00 | 0.00 | 74 | 1009.1 |
| 20260506012928 | 56 | 168 | 2.6 | 7.0 | 0.00 | 0.00 | 0.00 | 74 | 1008.9 |
| 20260506012424 | 56 | 167 | 2.6 | 4.3 | 0.00 | 0.00 | 0.00 | 74 | 1008.8 |
| 20260506011921 | 57 | 126 | 4.3 | 6.1 | 0.00 | 0.00 | 0.00 | 74 | 1008.5 |
| 20260506011418 | 57 | 149 | 1.7 | 6.1 | 0.00 | 0.00 | 0.00 | 74 | 1008.4 |
| 20260506010915 | 57 | 70 | 6.1 | 6.1 | 0.00 | 0.00 | 0.00 | 73 | 1008.5 |
| 20260506010414 | 57 | 337 | 0.0 | 4.3 | 0.00 | 0.00 | 0.00 | 73 | 1008.3 |
| 20260506005910 | 57 | 161 | 0.0 | 4.3 | 0.00 | 0.00 | 0.00 | 73 | 1008.6 |
| 20260506005408 | 58 | 152 | 3.5 | 6.1 | 0.00 | 0.00 | 0.00 | 72 | 1008.3 |
| 20260506004903 | 58 | 104 | 2.6 | 6.1 | 0.00 | 0.00 | 0.00 | 73 | 1008.2 |
| 20260506004401 | 58 | 125 | 0.0 | 3.5 | 0.00 | 0.00 | 0.00 | 73 | 1008.1 |
| 20260506003857 | 59 | 92 | 1.7 | 3.5 | 0.00 | 0.00 | 0.00 | 72 | 1008.2 |
| 20260506003353 | 58 | 115 | 0.0 | 4.3 | 0.00 | 0.00 | 0.00 | 72 | 1008.2 |
| 20260506002850 | 59 | 184 | 0.0 | 3.5 | 0.00 | 0.00 | 0.00 | 73 | 1008.2 |
| 20260506002346 | 59 | 114 | 3.5 | 5.2 | 0.00 | 0.00 | 0.00 | 72 | 1008.3 |
| 20260506001842 | 59 | 215 | 0.0 | 5.2 | 0.00 | 0.00 | 0.00 | 71 | 1008.1 |
| 20260506001339 | 60 | 14 | 0.0 | 4.3 | 0.00 | 0.00 | 0.00 | 71 | 1008.0 |
| 20260506000836 | 60 | 120 | 3.5 | 3.5 | 0.00 | 0.00 | 0.00 | 71 | 1008.2 |
| 20260506000334 | 60 | 3 | 0.0 | 5.2 | 0.00 | 0.00 | 0.00 | 70 | 1007.7 |
| 20260505235830 | 61 | 66 | 1.7 | 4.3 | 0.00 | 0.00 | 0.00 | 69 | 1007.7 |
| 20260505235328 | 61 | 136 | 4.3 | 4.3 | 0.00 | 0.00 | 0.00 | 68 | 1007.7 |
| 20260505234824 | 62 | 168 | 0.0 | 4.3 | 0.00 | 0.00 | 0.00 | 67 | 1007.6 |
| 20260505234322 | 62 | 244 | 0.0 | 4.3 | 0.00 | 0.00 | 0.00 | 67 | 1007.5 |
| 20260505233819 | 62 | 150 | 0.0 | 2.6 | 0.00 | 0.00 | 0.00 | 67 | 1007.6 |
| 20260505233317 | 63 | 180 | 0.0 | 4.3 | 0.00 | 0.00 | 0.00 | 65 | 1007.4 |
| 20260505232814 | 64 | 138 | 0.0 | 3.5 | 0.00 | 0.00 | 0.00 | 65 | 1007.5 |
| 20260505232311 | 64 | 162 | 0.0 | 4.3 | 0.00 | 0.00 | 0.00 | 64 | 1007.2 |
| 20260505231808 | 64 | 50 | 0.0 | 4.3 | 0.00 | 0.00 | 0.00 | 64 | 1007.6 |
| 20260505231306 | 65 | 99 | 3.5 | 4.3 | 0.00 | 0.00 | 0.00 | 62 | 1007.3 |
| 20260505230804 | 66 | 241 | 2.6 | 6.1 | 0.00 | 0.00 | 0.00 | 62 | 1007.6 |
| 20260505230301 | 66 | 156 | 0.0 | 5.2 | 0.00 | 0.00 | 0.00 | 61 | 1007.6 |
| 20260505225757 | 66 | 88 | 0.0 | 1.7 | 0.00 | 0.00 | 0.00 | 61 | 1007.7 |
| 20260505225255 | 67 | 181 | 2.6 | 2.6 | 0.00 | 0.00 | 0.00 | 60 | 1007.4 |
| 20260505224749 | 68 | 253 | 0.0 | 3.5 | 0.00 | 0.00 | 0.00 | 59 | 1007.5 |
| 20260505224247 | 69 | 178 | 1.7 | 7.0 | 0.00 | 0.00 | 0.00 | 58 | 1007.4 |
| 20260505223745 | 70 | 210 | 0.0 | 5.2 | 0.00 | 0.00 | 0.00 | 55 | 1007.6 |
| 20260505223241 | 68 | 132 | 0.0 | 4.3 | 0.00 | 0.00 | 0.00 | 57 | 1007.4 |
| 20260505222737 | 68 | 201 | 0.0 | 2.6 | 0.00 | 0.00 | 0.00 | 57 | 1007.3 |
| 20260505222234 | 69 | 254 | 4.3 | 5.2 | 0.00 | 0.00 | 0.00 | 57 | 1007.4 |
| 20260505221731 | 70 | 237 | 4.3 | 7.8 | 0.00 | 0.00 | 0.00 | 56 | 1007.3 |
| 20260505221227 | 69 | 269 | 0.0 | 4.3 | 0.00 | 0.00 | 0.00 | 55 | 1007.0 |
| 20260505220724 | 71 | 195 | 0.0 | 7.8 | 0.00 | 0.00 | 0.00 | 54 | 1006.9 |
| 20260505220222 | 71 | 305 | 1.7 | 4.3 | 0.00 | 0.00 | 0.00 | 53 | 1006.9 |
| 20260505215720 | 70 | 254 | 2.6 | 6.1 | 0.00 | 0.00 | 0.00 | 54 | 1007.0 |
| 20260505215217 | 68 | 196 | 2.6 | 3.5 | 0.00 | 0.00 | 0.00 | 56 | 1007.0 |
| 20260505214715 | 70 | 17 | 0.0 | 5.2 | 0.00 | 0.00 | 0.00 | 55 | 1007.0 |
| 20260505214212 | 69 | 229 | 1.7 | 7.0 | 0.00 | 0.00 | 0.00 | 54 | 1006.9 |
| 20260505213709 | 70 | 44 | 2.6 | 5.2 | 0.00 | 0.00 | 0.00 | 55 | 1007.2 |
| 20260505213206 | 69 | 232 | 3.5 | 4.3 | 0.00 | 0.00 | 0.00 | 55 | 1007.2 |
| 20260505212702 | 70 | 257 | 2.6 | 4.3 | 0.00 | 0.00 | 0.00 | 56 | 1007.4 |
| 20260505212200 | 71 | 279 | 7.8 | 9.6 | 0.00 | 0.00 | 0.00 | 54 | 1007.0 |
| 20260505211657 | 69 | 126 | 0.0 | 5.2 | 0.00 | 0.00 | 0.00 | 56 | 1007.0 |
| 20260505211154 | 70 | 283 | 2.6 | 11.3 | 0.00 | 0.00 | 0.00 | 56 | 1006.9 |
| 20260505210650 | 70 | 244 | 5.2 | 7.0 | 0.00 | 0.00 | 0.00 | 55 | 1007.0 |
| 20260505210147 | 70 | 289 | 5.2 | 9.6 | 0.00 | 0.00 | 0.00 | 55 | 1007.0 |
| 20260505205645 | 70 | 195 | 0.0 | 8.7 | 0.00 | 0.00 | 0.00 | 56 | 1007.0 |
| 20260505205143 | 70 | 300 | 0.0 | 6.1 | 0.00 | 0.00 | 0.00 | 56 | 1007.1 |
| 20260505204639 | 69 | 268 | 3.5 | 3.5 | 0.00 | 0.00 | 0.00 | 56 | 1006.7 |
| 20260505204137 | 69 | 247 | 0.0 | 8.7 | 0.00 | 0.00 | 0.00 | 57 | 1006.8 |
| 20260505203634 | 70 | 276 | 3.5 | 4.3 | 0.00 | 0.00 | 0.00 | 56 | 1006.2 |
| 20260505203131 | 71 | 238 | 0.0 | 7.8 | 0.00 | 0.00 | 0.00 | 55 | 1006.8 |
| 20260505202626 | 71 | 239 | 7.0 | 7.0 | 0.00 | 0.00 | 0.00 | 54 | 1006.8 |
| 20260505202122 | 72 | 296 | 2.6 | 4.3 | 0.00 | 0.00 | 0.00 | 53 | 1006.5 |
| 20260505201619 | 71 | 264 | 0.0 | 6.1 | 0.00 | 0.00 | 0.00 | 54 | 1007.0 |
| 20260505201117 | 71 | 282 | 1.7 | 6.1 | 0.00 | 0.00 | 0.00 | 54 | 1006.9 |
| 20260505200615 | 70 | 267 | 0.0 | 5.2 | 0.00 | 0.00 | 0.00 | 55 | 1006.7 |
| 20260505200112 | 71 | 282 | 0.0 | 7.8 | 0.00 | 0.00 | 0.00 | 54 | 1006.9 |
| 20260505195608 | 71 | 278 | 4.3 | 8.7 | 0.00 | 0.00 | 0.00 | 54 | 1006.9 |
| 20260505195105 | 69 | 246 | 3.5 | 6.1 | 0.00 | 0.00 | 0.00 | 57 | 1006.8 |
| 20260505194602 | 69 | 240 | 0.0 | 4.3 | 0.00 | 0.00 | 0.00 | 56 | 1006.8 |
| 20260505194058 | 69 | 227 | 3.5 | 3.5 | 0.00 | 0.00 | 0.00 | 57 | 1006.8 |
| 20260505193555 | 69 | 274 | 0.0 | 7.8 | 0.00 | 0.00 | 0.00 | 55 | 1006.9 |
| 20260505193052 | 70 | 276 | 3.5 | 6.1 | 0.00 | 0.00 | 0.00 | 54 | 1006.9 |
| 20260505192551 | 70 | 273 | 0.0 | 3.5 | 0.00 | 0.00 | 0.00 | 55 | 1006.9 |
| 20260505192048 | 72 | 255 | 4.3 | 9.6 | 0.00 | 0.00 | 0.00 | 53 | 1006.9 |
| 20260505191546 | 72 | 213 | 2.6 | 7.8 | 0.00 | 0.00 | 0.00 | 54 | 1007.0 |
| 20260505191044 | 71 | 275 | 6.1 | 7.0 | 0.00 | 0.00 | 0.00 | 54 | 1006.7 |
| 20260505190538 | 70 | 293 | 1.7 | 4.3 | 0.00 | 0.00 | 0.00 | 56 | 1006.4 |
| 20260505190034 | 73 | 295 | 6.1 | 9.6 | 0.00 | 0.00 | 0.00 | 52 | 1006.7 |
| 20260505185531 | 73 | 246 | 0.0 | 4.3 | 0.00 | 0.00 | 0.00 | 53 | 1006.3 |
| 20260505185028 | 73 | 238 | 3.5 | 7.8 | 0.00 | 0.00 | 0.00 | 55 | 1006.4 |
| 20260505184524 | 74 | 284 | 0.0 | 7.0 | 0.00 | 0.00 | 0.00 | 52 | 1006.5 |
| 20260505184021 | 75 | 278 | 2.6 | 7.0 | 0.00 | 0.00 | 0.00 | 53 | 1006.7 |
| 20260505183518 | 73 | 233 | 4.3 | 4.3 | 0.00 | 0.00 | 0.00 | 55 | 1006.4 |
| 20260505183016 | 72 | 303 | 0.0 | 8.7 | 0.00 | 0.00 | 0.00 | 54 | 1006.1 |
| 20260505182512 | 72 | 214 | 1.7 | 7.0 | 0.00 | 0.00 | 0.00 | 56 | 1006.5 |
| 20260505182008 | 74 | 265 | 4.3 | 6.1 | 0.00 | 0.00 | 0.00 | 54 | 1006.4 |
| 20260505181505 | 74 | 290 | 3.5 | 7.8 | 0.00 | 0.00 | 0.00 | 54 | 1006.5 |
| 20260505181003 | 71 | 260 | 0.0 | 7.0 | 0.00 | 0.00 | 0.00 | 56 | 1006.8 |
| 20260505180458 | 71 | 322 | 0.0 | 7.0 | 0.00 | 0.00 | 0.00 | 56 | 1006.4 |
| 20260505175955 | 72 | 246 | 0.0 | 9.6 | 0.00 | 0.00 | 0.00 | 57 | 1006.1 |
| 20260505175451 | 72 | 260 | 5.2 | 7.8 | 0.00 | 0.00 | 0.00 | 57 | 1005.8 |
| 20260505174948 | 72 | 266 | 0.0 | 7.0 | 0.00 | 0.00 | 0.00 | 58 | 1005.7 |
| 20260505174445 | 73 | 300 | 4.3 | 6.1 | 0.00 | 0.00 | 0.00 | 57 | 1005.8 |
| 20260505173941 | 74 | 283 | 4.3 | 7.8 | 0.00 | 0.00 | 0.00 | 56 | 1005.5 |
| 20260505173438 | 73 | 252 | 2.6 | 4.3 | 0.00 | 0.00 | 0.00 | 59 | 1005.5 |
| 20260505172935 | 74 | 245 | 2.6 | 7.8 | 0.00 | 0.00 | 0.00 | 57 | 1005.4 |
| 20260505172433 | 75 | 283 | 3.5 | 7.8 | 0.00 | 0.00 | 0.00 | 56 | 1005.1 |
| 20260505171932 | 76 | 264 | 5.2 | 5.2 | 0.00 | 0.00 | 0.00 | 56 | 1005.1 |
| 20260505171430 | 77 | 263 | 1.7 | 5.2 | 0.00 | 0.00 | 0.00 | 55 | 1004.8 |
| 20260505170926 | 78 | 305 | 4.3 | 7.0 | 0.00 | 0.00 | 0.00 | 54 | 1004.6 |
| 20260505170423 | 77 | 276 | 1.7 | 7.0 | 0.00 | 0.00 | 0.00 | 54 | 1004.8 |
| 20260505165918 | 77 | 255 | 4.3 | 7.8 | 0.00 | 0.00 | 0.00 | 54 | 1004.7 |
| 20260505165415 | 77 | 260 | 7.8 | 7.8 | 0.00 | 0.00 | 0.00 | 53 | 1004.5 |
| 20260505164910 | 77 | 277 | 4.3 | 7.8 | 0.00 | 0.00 | 0.00 | 52 | 1004.6 |
| 20260505164407 | 76 | 247 | 4.3 | 5.2 | 0.00 | 0.00 | 0.00 | 49 | 1004.4 |
| 20260505163905 | 77 | 254 | 2.6 | 5.2 | 0.00 | 0.00 | 0.00 | 49 | 1004.4 |
| 20260505163404 | 77 | 276 | 4.3 | 7.0 | 0.00 | 0.00 | 0.00 | 44 | 1004.2 |
| 20260505162902 | 78 | 285 | 5.2 | 8.7 | 0.00 | 0.00 | 0.00 | 39 | 1004.3 |
| 20260505162357 | 78 | 250 | 1.7 | 7.0 | 0.00 | 0.00 | 0.00 | 38 | 1004.3 |
| 20260505161855 | 78 | 258 | 3.5 | 5.2 | 0.00 | 0.00 | 0.00 | 37 | 1004.4 |
| 20260505161351 | 78 | 177 | 3.5 | 6.1 | 0.00 | 0.00 | 0.00 | 36 | 1003.9 |
| 20260505160849 | 80 | 263 | 2.6 | 6.1 | 0.00 | 0.00 | 0.00 | 35 | 1003.8 |
| 20260505160347 | 80 | 244 | 2.6 | 6.1 | 0.00 | 0.00 | 0.00 | 35 | 1003.9 |
| 20260505153325 | 79 | 259 | 3.5 | 8.7 | 0.00 | 0.00 | 0.00 | 40 | 1003.3 |
| 20260505152822 | 78 | 260 | 0.0 | 4.3 | 0.00 | 0.00 | 0.00 | 42 | 1003.1 |
| 20260505152319 | 78 | 282 | 1.7 | 6.1 | 0.00 | 0.00 | 0.00 | 41 | 1003.0 |
| 20260505151814 | 78 | 265 | 1.7 | 4.3 | 0.00 | 0.00 | 0.00 | 46 | 1002.8 |
| 20260505151311 | 78 | 224 | 7.0 | 7.0 | 0.00 | 0.00 | 0.00 | 44 | 1003.0 |
| 20260505150808 | 78 | 236 | 1.7 | 9.6 | 0.00 | 0.00 | 0.00 | 46 | 1002.8 |
| 20260505150305 | 78 | 226 | 2.6 | 11.3 | 0.00 | 0.00 | 0.00 | 50 | 1003.0 |
| 20260505140229 | 73 | 204 | 9.6 | 13.9 | 0.00 | 0.00 | 0.00 | 71 | 1002.3 |
| 20260505130153 | 69 | 191 | 4.3 | 11.3 | 0.00 | 0.00 | 0.00 | 80 | 1001.8 |
| 20260505124643 | 69 | 182 | 9.6 | 19.1 | 0.00 | 0.00 | 0.00 | 81 | 1001.5 |
| 20260505124139 | 69 | 206 | 6.1 | 11.3 | 0.00 | 0.00 | 0.00 | 81 | 1001.5 |
| 20260505123635 | 69 | 188 | 6.1 | 17.4 | 0.00 | 0.00 | 0.00 | 81 | 1001.4 |
| 20260505123132 | 69 | 188 | 5.2 | 17.4 | 0.00 | 0.00 | 0.00 | 81 | 1001.5 |
| 20260505122629 | 69 | 178 | 9.6 | 13.9 | 0.00 | 0.00 | 0.00 | 81 | 1001.5 |
| 20260505122126 | 69 | 210 | 5.2 | 18.2 | 0.00 | 0.00 | 0.00 | 81 | 1001.3 |
| 20260505121622 | 69 | 215 | 6.1 | 21.7 | 0.00 | 0.00 | 0.00 | 81 | 1001.0 |
| 20260505121119 | 69 | 187 | 11.3 | 15.6 | 0.00 | 0.00 | 0.00 | 81 | 1001.1 |
| 20260505120615 | 69 | 198 | 13.9 | 17.4 | 0.00 | 0.00 | 0.00 | 81 | 1001.1 |
| 20260505120111 | 69 | 214 | 8.7 | 11.3 | 0.00 | 0.00 | 0.00 | 81 | 1001.1 |
| 20260505115606 | 69 | 198 | 14.8 | 17.4 | 0.00 | 0.00 | 0.00 | 80 | 1000.9 |
| 20260505115103 | 69 | 193 | 6.1 | 14.8 | 0.00 | 0.00 | 0.00 | 80 | 1001.0 |
| 20260505114555 | 69 | 203 | 8.7 | 13.0 | 0.00 | 0.00 | 0.00 | 80 | 1001.1 |
| 20260505114051 | 69 | 202 | 7.0 | 13.0 | 0.00 | 0.00 | 0.00 | 80 | 1001.1 |
| 20260505113548 | 69 | 221 | 9.6 | 18.2 | 0.00 | 0.00 | 0.00 | 80 | 1001.0 |
| 20260505113044 | 70 | 188 | 5.2 | 19.1 | 0.00 | 0.00 | 0.00 | 80 | 1000.9 |
| 20260505112540 | 70 | 209 | 5.2 | 19.1 | 0.00 | 0.00 | 0.00 | 79 | 1000.8 |
| 20260505112039 | 70 | 188 | 8.7 | 18.2 | 0.00 | 0.00 | 0.00 | 79 | 1000.8 |
| 20260505111538 | 70 | 198 | 5.2 | 19.1 | 0.00 | 0.00 | 0.00 | 79 | 1000.9 |
| 20260505111035 | 70 | 210 | 11.3 | 18.2 | 0.00 | 0.00 | 0.00 | 79 | 1000.7 |
| 20260505110531 | 70 | 199 | 8.7 | 18.2 | 0.00 | 0.00 | 0.00 | 79 | 1000.7 |